DELTA 1 DEB, 7850

Orbit data source: Space-Track

DELTA 1 DEB, 7850 is space debris in SSO originally from a launch on Sun, 23 Jul 1972 UTC launched from the Air Force Western Test Range (AFWTR). Debris objects in space refer to the collection of defunct objects orbiting the Earth. Examples of debris include non-operational satellites, rocket bodies, and fragments generated from explosions, collisions, or faulty payload assembly.

Loading next visibility...
Identifier
7850, 1972-058W
Orbit
SSO
Country
Flag of USUS
Related business
Manufacturer
Unknown
Mission
Spacecraft
Bus & Motor
Unknown
Mass
Unknown
Launch date (UTC)
1972-07-23 (54 years ago)
Launch vehicle
Unknown
Launch site
Air Force Western Test Range (AFWTR)
Object type
Payload
Rocket body
Debris
Shape & HBR
Unknown shape, 0.5 m
Radar Cross Section
Medium (>0.1 m² and <1 m²)

Expand to show TLE details & history
Last TLE update: 12 hours ago

TLE from 12 hours ago
0 DELTA 1 DEB
1  7850U 72058W   26177.46047220  .00006532  00000-0  11306-2 0  9999
2  7850  98.2775 132.3627 0153745  35.1389 325.9835 14.61158676621546
Epoch: 2026-06-26T11:03Z
TLE epoch observation values (Epoch: 2026-06-26T11:03:04.798Z)
Latitude
-0.00006°
Longitude
52.00406°
Altitude
602.868 km
Speed
7.606 km/s
True Right ascension
08h 49m 27s
True Declination
0° 00' 00"
Sunlit
Object was in daylight at epoch
Visualization orbit readout
Latitude
Unknown
Longitude
Unknown
Altitude
Unknown
Speed
Unknown
Apparent Right ascension
Unknown
Apparent Declination
Unknown
Sunlit
N/A
Visualization observer readout
Local Sidereal Time
10:30:52
Azimuth
Unknown
Elevation
Unknown
Doppler factor
Unknown
Orbital elements
Apogee altitude
795.133 km
Perigee altitude
577.902 km
Semi-major axis
7,064.654 km
Eccentricity
0.01537
Inclination
98.2775°
RAAN
132.3627°
Arg. of periapsis
35.1389°
True anomaly
324.98201°
Mean anomaly
325.9835°
Eccentric anomaly
325.48436°
Mean motion
3.65516 °/min
Orbital period
98.49 mins
BSTAR
0.0011306
Loading maneuver chart data...
Computing Atmospheric mass density...

Documentation

Showing up to 5 results
|